Weather History for Norwood, MA

Change the Weather History Date:

Wednesday, February 19, 2014

  Actual Average Record
Temperature  
Mean Temperature 24 °F -  
Max Temperature 37 °F 37 °F 64 °F (1997)
Min Temperature 10 °F 20 °F 8 °F (2007)
Degree Days  
Heating Degree Days 42    
Moisture  
Dew Point 25 °F    
Average Humidity 90    
Maximum Humidity 100    
Minimum Humidity 70    
Precipitation  
Precipitation 0.22 in - - ()
Sea Level Pressure  
Sea Level Pressure 29.88 in    
Wind  
Wind Speed 4 mph (NW)    
Max Wind Speed 9 mph    
Max Gust Speed -    
Visibility 5 miles    
Events Rain , Snow    
Averages and records for this station are not official NWS values.
T = Trace of Precipitation, MM = Missing Value Source: NWS Daily Summary

Daily Weather History Graph

Daily Weather History Graph

Search for Another Location

Airport:

Trip Planner

Search our weather history database for the weather conditions in past years. The results will help you decide how hot, cold, wet, or windy it might be!

Date:

Astronomy

Feb. 19, 2014 Rise Set
Actual Time 6:35 AM EST 5:22 PM EST
Civil Twilight 6:06 AM EST 5:50 PM EST
Nautical Twilight 5:34 AM EST 6:23 PM EST
Astronomical Twilight 5:01 AM EST 6:56 PM EST
Moon 10:18 PM EST (2/19) 8:33 AM EST (2/19)
Length of Visible Light 11h 44m
Length of Day
10h 47m
Waning Gibbous, 80% of the Moon is Illuminated
Feb 19
Waning Gibbous
Feb 22
Last Quarter
Mar 1
New
Mar 8
First Quarter
Mar 16
Full

Hourly Weather History & Observations

Time (EST) Temp. Windchill Dew Point Humidity Pressure Visibility Wind Dir Wind Speed Gust Speed Precip Events Conditions
12:53 AM 16.0 °F 10.4 °F 16.0 °F 100% 30.06 in 10.0 mi SSW 3.5 mph - N/A   Clear
1:53 AM 14.0 °F 8.2 °F 10.9 °F 88% 30.07 in 10.0 mi SW 3.5 mph - N/A   Clear
2:53 AM 19.9 °F 11.1 °F 18.0 °F 92% 30.11 in 10.0 mi WSW 6.9 mph - N/A   Clear
3:53 AM 19.0 °F 13.9 °F 16.0 °F 88% 30.10 in 10.0 mi WSW 3.5 mph - N/A   Clear
4:53 AM 15.1 °F - 12.9 °F 91% 30.09 in 9.0 mi Calm Calm - N/A   Clear
5:53 AM 10.9 °F - 10.0 °F 96% 30.09 in 3.0 mi Calm Calm - N/A   Clear
6:00 AM 12.9 °F - 10.9 °F 92% 30.08 in 2.5 mi Calm Calm - N/A   Clear
6:08 AM 12.9 °F - 10.9 °F 92% 30.08 in 6.0 mi Calm Calm - N/A   Clear
6:53 AM 10.0 °F - 8.1 °F 92% 30.06 in 9.0 mi Calm Calm - N/A   Clear
7:53 AM 15.1 °F - 14.0 °F 95% 30.05 in 7.0 mi Calm Calm - N/A   Clear
8:53 AM 21.9 °F 17.2 °F 21.0 °F 96% 30.05 in 6.0 mi WSW 3.5 mph - N/A   Clear
9:53 AM 30.0 °F 25.2 °F 25.0 °F 82% 30.03 in 10.0 mi SE 4.6 mph - N/A   Clear
10:53 AM 34.0 °F 27.2 °F 26.1 °F 73% 29.99 in 10.0 mi SSE 8.1 mph - N/A   Clear
11:53 AM 35.1 °F 32.2 °F 26.1 °F 70% 29.96 in 10.0 mi SSW 3.5 mph - N/A   Clear
12:53 PM 36.0 °F 33.3 °F 27.0 °F 70% 29.91 in 10.0 mi SE 3.5 mph - N/A   Mostly Cloudy
1:53 PM 37.0 °F 32.4 °F 28.9 °F 73% 29.83 in 10.0 mi East 5.8 mph - N/A   Mostly Cloudy
2:53 PM 35.1 °F 29.3 °F 28.9 °F 78% 29.82 in 2.5 mi NNE 6.9 mph - 0.00 in Snow Light Snow
2:58 PM 34.0 °F 27.2 °F 28.9 °F 82% 29.81 in 0.8 mi NNE 8.1 mph - 0.01 in Snow Light Snow
3:09 PM 33.1 °F 26.9 °F 30.0 °F 89% 29.80 in 1.2 mi NNE 6.9 mph - 0.05 in Snow Light Snow
3:21 PM 33.1 °F 26.9 °F 30.0 °F 89% 29.79 in 2.0 mi Variable 6.9 mph - 0.09 in Rain Rain
3:53 PM 33.1 °F 27.7 °F 30.9 °F 92% 29.75 in 2.5 mi NE 5.8 mph - 0.16 in Rain Light Rain
4:39 PM 34.0 °F 28.8 °F 32.0 °F 92% 29.73 in 2.5 mi NE 5.8 mph - 0.04 in Rain Light Rain
4:48 PM 33.8 °F 27.7 °F 32.0 °F 93% 29.73 in 2.0 mi NNE 6.9 mph - 0.04 in Rain Light Rain
4:53 PM 34.0 °F 29.8 °F 32.0 °F 92% 29.74 in 2.0 mi North 4.6 mph - 0.04 in   Overcast
5:53 PM 34.0 °F 31.0 °F 33.1 °F 96% 29.72 in 2.0 mi NNW 3.5 mph - 0.00 in   Overcast
6:53 PM 33.1 °F 27.7 °F 33.1 °F 100% 29.73 in 2.0 mi WNW 5.8 mph - N/A   Overcast
7:00 PM 34.0 °F 27.2 °F 32.0 °F 92% 29.73 in 3.0 mi NW 8.1 mph - N/A   Overcast
7:44 PM 33.1 °F 26.1 °F 32.0 °F 96% 29.72 in 3.0 mi NW 8.1 mph - N/A   Overcast
7:53 PM 33.1 °F 25.5 °F 32.0 °F 96% 29.73 in 3.0 mi NW 9.2 mph - N/A   Overcast
8:38 PM 33.1 °F 27.7 °F 32.0 °F 96% 29.73 in 2.5 mi NNW 5.8 mph - N/A   Overcast
8:53 PM 33.1 °F 28.7 °F 32.0 °F 96% 29.75 in 2.5 mi WNW 4.6 mph - N/A   Overcast
9:02 PM 33.1 °F 26.9 °F 32.0 °F 96% 29.76 in 3.0 mi West 6.9 mph - N/A   Overcast
9:31 PM 33.1 °F 26.9 °F 30.9 °F 92% 29.77 in 4.0 mi WNW 6.9 mph - 0.01 in Rain Light Rain
9:53 PM 33.1 °F 27.7 °F 30.9 °F 92% 29.78 in 4.0 mi NW 5.8 mph - 0.02 in Rain Light Rain
10:53 PM 33.1 °F 27.7 °F 30.9 °F 92% 29.80 in 7.0 mi WNW 5.8 mph - 0.00 in   Overcast
11:46 PM 33.1 °F 28.7 °F 30.9 °F 92% 29.83 in 7.0 mi West 4.6 mph - N/A   Mostly Cloudy
11:53 PM 33.1 °F 28.7 °F 30.9 °F 92% 29.83 in 6.0 mi WSW 4.6 mph - N/A   Scattered Clouds